Flag for Portugal Weather past 2 weeks in Coimbra, Portugal

Now
86 °F

Passing clouds.


Feels Like: 84 °F
Forecast: 64 / 88 °F
Wind: 8 mph from Northeast

Location: Porto / Pedras Rubras

Current Time: Jul 29, 2014 at 3:59:31 PM

Latest Report: Jul 29, 2014 at 3:00 PM


Visibility: N/A

Pressure: 29.95 "Hg

Humidity: 33%

Dew point: 54 °F

Location of CoimbraLocation

Historic Weather in Coimbra — Graph

°F

Coimbra temperature yesterday

Maximum temperature yesterday: 79 °F (at 2:30 PM)
Minimum temperature yesterday: 63 °F (at 12:00 AM)
Average temperature yesterday: 69 °F

Past Weeks' High & Low Weather Summary

 TemperatureHumidityPressure
High86 °F (Jul 29, 2:30 PM)100% (Jul 15, 3:00 AM)30.21 "Hg (Jul 15, 3:00 AM)
Low54 °F (Jul 21, 6:00 AM)33% (Jul 29, 3:00 PM)29.83 "Hg (Jul 19, 3:00 AM)
Average66 °F87%30.00 "Hg
* Reported Jul 14 3:00 PM — Jul 29 3:00 PM, Coimbra, Weather by CustomWeather, © 2014

Note: Actual official high and low records may vary slightly from our data, if they occured in-between our weather recording intervals... More about our weather records

Advertising

Coimbra weather history for previous 24 hours

 ConditionsComfort  
Time TempWeatherWind HumidityBarometerVisibility
3:00 PM
Jul 29
86 °FPassing clouds.8 mph33%29.95 "HgN/A
2:30 PM86 °FPassing clouds.7 mph35%29.95 "HgN/A
2:00 PM84 °FPassing clouds.9 mph37%29.95 "HgN/A
1:30 PM82 °FPassing clouds.10 mph40%29.98 "HgN/A
1:00 PM82 °FPassing clouds.9 mph40%29.98 "HgN/A
12:30 PM81 °FPassing clouds.12 mph42%29.98 "HgN/A
12:00 PM81 °FSunny.9 mph42%29.98 "Hg10 mi
11:30 AM79 °FSunny.10 mph48%29.98 "Hg10 mi
11:00 AM77 °FPassing clouds.10 mph51%29.98 "HgN/A
10:30 AM77 °FPassing clouds.10 mph51%29.98 "HgN/A
10:00 AM75 °FSunny.10 mph54%29.98 "Hg10 mi
9:30 AM73 °FSunny.8 mph61%29.98 "Hg10 mi
9:00 AM72 °FPassing clouds.9 mph61%29.98 "HgN/A
8:30 AM70 °FSunny.7 mph69%29.98 "Hg10 mi
8:00 AM66 °FSunny.9 mph73%29.98 "Hg10 mi
7:30 AM64 °FPassing clouds.10 mph78%29.98 "HgN/A
7:00 AM64 °FClear.9 mph78%29.98 "Hg10 mi
6:30 AM64 °FPassing clouds.8 mph78%29.98 "HgN/A
6:00 AM64 °FClear.8 mph78%29.98 "Hg10 mi
5:30 AM63 °FClear.9 mph83%29.95 "Hg10 mi
5:00 AM63 °FClear.9 mph83%29.95 "Hg10 mi
4:30 AM64 °FClear.9 mph78%29.95 "Hg10 mi
4:00 AM64 °FClear.7 mph78%29.95 "Hg10 mi
3:30 AM64 °FClear.9 mph78%29.95 "Hg10 mi
3:00 AM66 °FClear.10 mph73%29.95 "Hg10 mi
2:30 AM66 °FClear.8 mph73%29.95 "Hg10 mi
2:00 AM66 °FClear.9 mph73%29.95 "Hg10 mi
1:30 AM68 °FClear.10 mph73%29.95 "Hg10 mi
1:00 AM68 °FClear.10 mph73%29.95 "Hg10 mi
12:30 AM68 °FClear.8 mph73%29.98 "Hg10 mi
12:00 AM68 °FClear.7 mph78%29.95 "Hg10 mi
11:30 PM
Jul 28
70 °FPassing clouds.5 mph73%29.98 "HgN/A
11:00 PM68 °FClear.6 mph83%29.98 "Hg10 mi
10:30 PM70 °FClear.9 mph78%29.98 "Hg10 mi
10:00 PM70 °FClear.7 mph78%29.98 "Hg10 mi
9:30 PM70 °FSunny.6 mph78%29.95 "Hg10 mi
9:00 PM72 °FSunny.9 mph73%29.95 "Hg10 mi
8:30 PM72 °FSunny.10 mph73%29.95 "Hg10 mi
8:00 PM73 °FSunny.12 mph69%29.95 "Hg10 mi
7:30 PM75 °FSunny.12 mph65%29.95 "Hg10 mi
7:00 PM77 °FSunny.10 mph61%29.95 "Hg10 mi
6:30 PM77 °FPassing clouds.13 mph61%29.95 "HgN/A
6:00 PM77 °FPassing clouds.14 mph61%29.98 "HgN/A
5:30 PM77 °FSunny.15 mph61%29.98 "Hg10 mi
5:00 PM77 °FPassing clouds.14 mph65%29.98 "HgN/A
4:30 PM79 °FPassing clouds.9 mph61%29.98 "HgN/A
4:00 PM79 °FPassing clouds.8 mph61%29.98 "HgN/A
3:30 PM79 °FPassing clouds.8 mph61%30.01 "HgN/A
3:00 PM79 °FPassing clouds.8 mph65%30.01 "HgN/A
Weather by CustomWeather, © 2014

See weather overviewHow to use our weather pages